W5UGD Weather Reports


time (UTC)temp
C
wind
direction
speed
KPH
gust
KPH
rain 1hr
cm
rain 24hr
cm
rain mn
cm
humidity
%
barometer
mb
20260504050503 10 90 0.0 3.2 0.00 0.00 0.00 86 1016.0
20260504050003 10 0 0.0 0.0 0.00 0.00 0.00 86 1015.9
20260504045503 10 61 0.0 1.6 0.00 0.00 0.00 85 1016.0
20260504045003 10 71 0.0 3.2 0.00 0.00 0.00 85 1015.9
20260504044503 10 72 0.0 3.2 0.00 0.00 0.00 86 1016.0
20260504044003 10 98 0.0 1.6 0.00 0.00 0.00 86 1016.2
20260504043503 10 98 0.0 1.6 0.00 0.00 0.00 85 1016.3
20260504043003 10 97 0.0 1.6 0.00 0.00 0.00 85 1016.1
20260504042503 10 97 0.0 1.6 0.00 0.00 0.00 85 1016.3
20260504042003 11 96 0.0 1.6 0.00 0.00 0.00 84 1016.4
20260504041524 11 95 0.0 1.6 0.00 0.00 0.00 84 1016.4
20260504041003 11 94 0.0 1.6 0.00 0.00 0.00 84 1016.4
20260504040503 11 94 0.0 1.6 0.00 0.00 0.00 84 1016.5
20260504040004 11 94 0.0 1.6 0.00 0.00 0.00 85 1016.5
20260504035503 10 93 0.0 1.6 0.00 0.00 0.00 85 1016.5
20260504035003 10 93 0.0 1.6 0.00 0.00 0.00 85 1016.4
20260504034503 10 92 0.0 1.6 0.00 0.00 0.00 85 1016.4
20260504034003 10 78 0.0 1.6 0.00 0.00 0.00 85 1016.4
20260504033503 10 0 0.0 0.0 0.00 0.00 0.00 84 1016.4
20260504033003 10 0 0.0 0.0 0.00 0.00 0.00 84 1016.5
20260504032524 10 78 0.0 1.6 0.00 0.00 0.00 84 1016.5
20260504032003 10 78 0.0 1.6 0.00 0.00 0.00 84 1016.5
20260504031503 10 0 0.0 0.0 0.00 0.00 0.00 84 1016.3
20260504031003 10 0 0.0 0.0 0.00 0.00 0.00 82 1016.2
20260504030503 11 0 0.0 0.0 0.00 0.00 0.00 82 1016.3
20260504030003 11 0 0.0 0.0 0.00 0.00 0.00 81 1016.3
20260504025524 11 0 0.0 0.0 0.00 0.00 0.00 81 1016.4
20260504025024 11 0 0.0 0.0 0.00 0.00 0.00 80 1016.4
20260504024524 11 0 0.0 0.0 0.00 0.00 0.00 80 1016.3
20260504024003 11 0 0.0 0.0 0.00 0.00 0.00 79 1016.2
20260504023524 11 0 0.0 0.0 0.00 0.00 0.00 79 1016.2
20260504023024 11 0 0.0 0.0 0.00 0.00 0.00 77 1016.1
20260504022503 11 0 0.0 0.0 0.00 0.00 0.00 77 1016.1
20260504022003 12 0 0.0 0.0 0.00 0.00 0.00 76 1016.1
20260504021503 12 0 0.0 0.0 0.00 0.00 0.00 76 1016.1
20260504021003 12 0 0.0 0.0 0.00 0.00 0.00 75 1016.0
20260504020503 12 0 0.0 0.0 0.00 0.00 0.00 75 1016.0
20260504020003 12 0 0.0 0.0 0.00 0.00 0.00 72 1015.9
20260504015503 12 0 0.0 0.0 0.00 0.00 0.00 72 1015.8
20260504015003 12 0 0.0 0.0 0.00 0.00 0.00 72 1015.8
20260504014503 12 0 0.0 0.0 0.00 0.00 0.00 70 1015.7
20260504014003 13 0 0.0 0.0 0.00 0.00 0.00 71 1015.7
20260504013503 13 0 0.0 0.0 0.00 0.00 0.00 69 1015.6
20260504013024 13 0 0.0 0.0 0.00 0.00 0.00 68 1015.5
20260504012503 13 0 0.0 0.0 0.00 0.00 0.00 67 1015.5
20260504012003 13 0 0.0 0.0 0.00 0.00 0.00 66 1015.5
20260504011503 13 0 0.0 0.0 0.00 0.00 0.00 65 1015.5
20260504011003 13 0 0.0 0.0 0.00 0.00 0.00 64 1015.5
20260504010503 14 0 0.0 0.0 0.00 0.00 0.00 62 1015.5
20260504010003 14 0 0.0 0.0 0.00 0.00 0.00 63 1015.5
20260504005503 14 0 0.0 0.0 0.00 0.00 0.00 61 1015.4
20260504005003 14 0 0.0 0.0 0.00 0.00 0.00 60 1015.4
20260504004503 15 78 0.0 1.6 0.00 0.00 0.00 59 1015.4
20260504004003 15 78 0.0 1.6 0.00 0.00 0.00 58 1015.3
20260504003503 15 0 0.0 0.0 0.00 0.00 0.00 56 1015.3
20260504003003 15 0 0.0 0.0 0.00 0.00 0.00 57 1015.2
20260504002503 15 0 0.0 0.0 0.00 0.00 0.00 55 1015.2
20260504002003 16 0 0.0 0.0 0.00 0.00 0.00 56 1015.1
20260504001503 16 0 0.0 0.0 0.00 0.00 0.00 54 1015.1
20260504001003 16 78 0.0 1.6 0.00 0.00 0.00 53 1015.1
20260504000503 16 78 0.0 1.6 0.00 0.00 0.00 51 1015.1
20260504000003 17 78 0.0 1.6 0.00 0.00 0.00 53 1015.1
20260503235503 17 78 0.0 1.6 0.00 0.00 0.00 52 1015.1
20260503235003 17 78 0.0 1.6 0.00 0.00 0.00 50 1015.0
20260503234503 17 78 0.0 1.6 0.00 0.00 0.00 51 1015.1
20260503234003 17 77 0.0 1.6 0.00 0.00 0.00 48 1015.0
20260503233503 17 74 0.0 4.8 0.00 0.00 0.00 51 1015.0
20260503233003 18 73 0.0 4.8 0.00 0.00 0.00 46 1015.0
20260503232503 18 81 0.0 1.6 0.00 0.00 0.00 48 1015.0
20260503232003 18 70 0.0 3.2 0.00 0.00 0.00 45 1015.1
20260503231503 18 53 1.6 3.2 0.00 0.00 0.00 46 1015.1
20260503231003 18 35 1.6 6.4 0.00 0.00 0.00 45 1015.1
20260503230503 18 27 1.6 6.4 0.00 0.00 0.00 43 1015.1
20260503230025 18 271 1.6 4.8 0.00 0.00 0.00 45 1015.1
20260503225504 18 263 0.0 3.2 0.00 0.00 0.00 47 1015.1
20260503225003 18 51 1.6 4.8 0.00 0.00 0.00 45 1015.1
20260503224505 18 50 1.6 6.4 0.00 0.00 0.00 47 1015.2
20260503224004 19 42 1.6 6.4 0.00 0.00 0.00 43 1015.1
20260503223524 19 17 0.0 6.4 0.00 0.00 0.00 46 1015.2
20260503223005 19 37 1.6 4.8 0.00 0.00 0.00 42 1015.2
20260503222504 19 45 1.6 6.4 0.00 0.00 0.00 43 1015.3
20260503222003 19 12 1.6 9.7 0.00 0.00 0.00 45 1015.2
20260503221526 19 10 1.6 9.7 0.00 0.00 0.00 42 1015.3
20260503221004 19 52 1.6 4.8 0.00 0.00 0.00 45 1015.3
20260503220503 19 42 1.6 4.8 0.00 0.00 0.00 41 1015.4
20260503220005 19 53 1.6 4.8 0.00 0.00 0.00 43 1015.3
20260503215504 19 33 1.6 4.8 0.00 0.00 0.00 42 1015.4
20260503215003 19 359 3.2 8.0 0.00 0.00 0.00 42 1015.4
20260503214505 19 340 3.2 9.7 0.00 0.00 0.00 42 1015.4
20260503214004 19 38 1.6 9.7 0.00 0.00 0.00 41 1015.5
20260503213525 19 70 1.6 6.4 0.00 0.00 0.00 42 1015.5
20260503213005 19 10 3.2 9.7 0.00 0.00 0.00 40 1015.5
20260503212504 19 355 3.2 9.7 0.00 0.00 0.00 41 1015.6
20260503212024 20 354 3.2 8.0 0.00 0.00 0.00 39 1015.7
20260503211505 20 15 1.6 8.0 0.00 0.00 0.00 42 1015.7
20260503211004 20 46 1.6 8.0 0.00 0.00 0.00 41 1015.7
20260503210503 20 75 1.6 4.8 0.00 0.00 0.00 39 1015.8
20260503210005 20 8 3.2 6.4 0.00 0.00 0.00 38 1015.8
20260503205504 20 6 3.2 9.7 0.00 0.00 0.00 39 1015.8
20260503205004 20 3 1.6 9.7 0.00 0.00 0.00 40 1015.9
20260503204526 20 12 1.6 8.0 0.00 0.00 0.00 40 1016.0
20260503204025 20 66 3.2 9.7 0.00 0.00 0.00 40 1016.0
20260503203504 20 163 1.6 9.7 0.00 0.00 0.00 40 1016.0
20260503203004 20 165 3.2 8.0 0.00 0.00 0.00 42 1016.1
20260503202525 20 172 3.2 8.0 0.00 0.00 0.00 41 1016.2
20260503202003 20 215 3.2 9.7 0.00 0.00 0.00 38 1016.3
20260503201505 20 27 3.2 9.7 0.00 0.00 0.00 37 1016.5
20260503201004 20 22 3.2 8.0 0.00 0.00 0.00 38 1016.6
20260503200503 20 1 3.2 9.7 0.00 0.00 0.00 40 1016.7
20260503200026 20 14 3.2 9.7 0.00 0.00 0.00 40 1016.8
20260503195504 20 20 3.2 8.0 0.00 0.00 0.00 39 1016.9
20260503195003 20 219 1.6 8.0 0.00 0.00 0.00 40 1016.9
20260503194505 20 167 3.2 8.0 0.00 0.00 0.00 40 1017.0
20260503194004 20 150 1.6 6.4 0.00 0.00 0.00 39 1017.0
20260503193503 21 142 1.6 6.4 0.00 0.00 0.00 43 1017.1
20260503193026 21 157 3.2 9.7 0.00 0.00 0.00 40 1017.2
20260503192504 21 359 3.2 14.5 0.00 0.00 0.00 39 1017.2
20260503192004 21 1 3.2 14.5 0.00 0.00 0.00 40 1017.4
20260503191505 21 343 3.2 12.9 0.00 0.00 0.00 38 1017.4
20260503191004 21 357 3.2 16.1 0.00 0.00 0.00 40 1017.6
20260503190504 21 139 3.2 16.1 0.00 0.00 0.00 38 1017.7
20260503190005 21 166 3.2 8.0 0.00 0.00 0.00 37 1017.6
20260503185504 21 135 1.6 8.0 0.00 0.00 0.00 37 1017.7
20260503185004 22 46 1.6 6.4 0.00 0.00 0.00 37 1017.8
20260503184505 21 7 3.2 9.7 0.00 0.00 0.00 39 1017.8
20260503184004 21 11 3.2 11.3 0.00 0.00 0.00 40 1017.8
20260503183504 21 28 3.2 11.3 0.00 0.00 0.00 38 1017.9
20260503183005 21 10 3.2 8.0 0.00 0.00 0.00 39 1017.9
20260503182505 21 15 1.6 8.0 0.00 0.00 0.00 40 1018.0
20260503182004 21 73 1.6 8.0 0.00 0.00 0.00 38 1018.0
20260503181505 21 110 1.6 8.0 0.00 0.00 0.00 39 1018.0
20260503181025 21 32 3.2 14.5 0.00 0.00 0.00 39 1018.1
20260503180525 21 358 3.2 14.5 0.00 0.00 0.00 38 1018.1
20260503180005 20 360 3.2 11.3 0.00 0.00 0.00 39 1018.1
20260503175504 20 360 3.2 11.3 0.00 0.00 0.00 41 1018.1
20260503175004 21 11 1.6 8.0 0.00 0.00 0.00 39 1018.1
20260503174503 20 137 1.6 8.0 0.00 0.00 0.00 38 1018.3
20260503174004 20 147 1.6 8.0 0.00 0.00 0.00 40 1018.3
20260503173504 20 134 1.6 4.8 0.00 0.00 0.00 42 1018.3
20260503173003 20 133 1.6 4.8 0.00 0.00 0.00 41 1018.4
20260503172504 20 153 1.6 6.4 0.00 0.00 0.00 40 1018.5
20260503172024 20 343 3.2 9.7 0.00 0.00 0.00 40 1018.6
20260503171503 20 15 3.2 9.7 0.00 0.00 0.00 42 1018.7
20260503171004 19 75 3.2 9.7 0.00 0.00 0.00 44 1018.8
20260503170503 19 15 3.2 9.7 0.00 0.00 0.00 42 1018.9
20260503151005 17 23 1.6 6.4 0.00 0.00 0.00 46 1019.9
20260503150504 17 32 1.6 6.4 0.00 0.00 0.00 45 1020.0
20260503131005 11 239 1.6 4.8 0.00 0.00 0.00 70 1019.6
20260503130504 10 223 0.0 4.8 0.00 0.00 0.00 71 1019.6
20260503110504 4 0 0.0 0.0 0.00 0.00 0.00 93 1018.7
20260503090503 5 0 0.0 0.0 0.00 0.00 0.00 90 1017.2
20260503081503 5 0 0.0 0.0 0.00 0.00 0.00 89 1016.7
20260503081003 5 0 0.0 0.0 0.00 0.00 0.00 89 1016.7
20260503080503 5 0 0.0 0.0 0.00 0.00 0.00 89 1016.7
20260503072503 6 0 0.0 0.0 0.00 0.00 0.00 88 1016.3
20260503072003 6 0 0.0 0.0 0.00 0.00 0.00 87 1016.3
20260503071503 6 0 0.0 0.0 0.00 0.00 0.00 87 1016.2
20260503071003 6 0 0.0 0.0 0.00 0.00 0.00 86 1016.2
20260503070503 6 0 0.0 0.0 0.00 0.00 0.00 87 1016.1
20260503055003 7 0 0.0 0.0 0.00 0.00 0.00 80 1015.9
20260503054524 7 90 0.0 1.6 0.00 0.00 0.00 79 1015.9
20260503054003 7 90 0.0 1.6 0.00 0.00 0.00 79 1016.0
20260503053503 7 91 0.0 1.6 0.00 0.00 0.00 76 1016.0
20260503053024 7 90 0.0 1.6 0.00 0.00 0.00 76 1016.0
20260503052503 8 90 0.0 1.6 0.00 0.00 0.00 75 1015.9
20260503052003 8 0 0.0 0.0 0.00 0.00 0.00 73 1016.0